CAPE
5 0 1 1 52 45 32 21 70 19 17 0 4 15 0 0 0 0 0 0 0 0 0 1 1 1 1 0 0 0 0 0 0 0 0 0 0 0 0 0 0 0 0 0 0 0 0 0 0 0 0 0 0 0
0 0 3 39 15 5 0 2 66 43 9 14 14 1 0 0 0 0 0 0 0 0 0 0 2 2 2 1 0 0 0 0 0 0 0 0 0 0 0 0 0 0 0 0 0 0 0 0 0 0 0 0 0 0
0 3 14 20 11 6 1 40 59 66 7 3 0 20 0 0 0 0 0 0 0 0 0 0 0 0 0 0 0 0 0 0 0 0 0 0 0 0 0 0 0 0 0 0 0 0 0 0 0 0 0 0 0 0
11 10 36 35 25 11 22 31 28 26 14 0 1 2 1 0 0 0 0 0 0 0 0 0 0 0 0 0 0 0 0 0 0 0 0 0 0 0 0 0 0 0 0 0 0 0 0 0 0 0 0 0 0 0
6 17 23 47 37 33 21 3 11 43 15 1 1 2 0 0 0 0 0 1 0 0 0 0 0 0 0 0 0 0 0 0 0 0 0 0 0 0 0 0 0 0 0 0 0 0 0 0 0 0 0 0 0 0
0 1 5 22 27 4 6 0 0 14 13 13 5 1 0 0 0 0 0 0 0 0 0 0 0 0 0 0 0 0 0 0 1 1 1 1 1 0 0 0 0 0 0 0 0 0 0 0 0 0 0 0 0 0
0 11 14 14 18 23 22 15 1 17 24 8 5 0 0 0 0 0 0 0 0 0 0 0 0 0 0 0 0 0 0 0 0 0 0 0 0 0 0 0 0 0 0 0 0 0 0 0 0 0 0 0 0 0
27 55 59 32 28 37 5 3 8 31 18 5 0 0 0 0 0 0 0 0 0 0 0 0 0 0 0 0 0 0 0 0 0 0 0 0 0 0 0 0 0 0 0 0 0 0 0 0 0 0 0 0 0 0
0 0 0 1 1 0 2 1 0 0 0 0 0 0 0 0 0 0 0 0 0 0 0 0 0 0 0 0 0 0 0 0 0 0 0 0 0 0 0 0 0 0 0 0 0 0 0 0 0 0 0 0 0 0
0 0 0 0 0 0 0 0 0 0 0 0 0 0 0 0 0 0 0 0 0 0 0 0 0 0 0 0 0 0 0 0 0 0 0 0 0 0 0 0 0 0 0 0 0 0 0 0 0 0 0 0 0 0
0 0 0 0 0 0 0 0 0 0 0 0 0 0 0 0 0 0 0 0 0 0 0 0 0 0 0 0 0 0 0 0 0 0 0 0 0 0 0 0 0 0 0 0 0 0 0 0 0 0 0 0 0 0
0 0 0 0 0 0 0 0 0 0 0 0 0 0 0 0 0 0 0 0 0 0 0 0 0 0 0 0 0 0 0 0 0 0 0 0 0 0 0 0 0 0 0 0 0 0 0 0 0 0 0 0 0 0
0 0 0 0 0 0 0 0 0 0 0 0 0 0 0 0 0 0 0 0 0 0 0 0 0 0 0 0 0 0 0 0 0 0 0 0 0 0 0 0 0 0 0 0 0 0 0 0 0 0 0 0 0 0
0 0 0 0 0 0 0 0 0 0 0 0 0 0 0 0 0 0 0 0 0 0 0 0 0 0 0 0 0 0 0 0 0 0 0 0 0 0 0 0 0 0 0 0 0 0 0 0 0 0 0 0 0 0
0 0 0 0 0 0 0 0 0 0 0 0 0 0 0 0 0 0 0 0 0 0 0 0 0 0 0 0 0 0 0 0 0 0 0 0 0 0 0 0 0 0 0 0 0 0 0 0 0 0 0 0 0 0
0 0 0 0 0 0 0 0 0 0 0 0 0 0 0 0 0 0 0 0 0 0 0 0 0 0 0 0 0 0 0 0 0 0 0 0 0 0 0 0 0 0 0 0 0 0 0 0 0 0 0 0 0 0
0 0 0 0 0 0 0 0 0 0 0 0 0 0 0 0 0 0 0 0 0 0 0 0 0 0 0 0 0 0 0 0 0 0 0 0 0 0 0 0 0 0 0 0 0 0 0 0 0 0 0 0 0 0
0 0 0 0 0 0 0 0 0 0 0 0 0 0 0 0 0 0 0 0 0 0 0 0 0 0 0 0 0 0 0 0 0 0 0 0 0 0 0 0 0 0 0 0 0 0 0 0 0 0 0 0 0 0
0 0 0 0 0 0 0 0 0 0 0 0 0 0 0 0 0 0 0 0 0 0 0 0 0 0 0 0 0 0 0 0 0 0 0 0 0 0 0 0 0 0 0 0 0 0 0 0 0 0 0 0 0 0
0 0 0 0 0 0 0 0 0 0 0 0 0 0 0 0 0 0 0 0 0 0 0 0 0 0 0 0 0 0 0 0 0 0 0 0 0 0 0 0 0 0 0 0 0 0 0 0 0 0 0 0 0 0
0 0 0 0 0 0 0 0 0 0 0 0 0 0 0 0 0 0 0 0 0 0 0 0 0 0 0 0 0 0 0 0 0 0 0 0 0 0 0 0 0 0 0 0 0 0 0 0 0 0 0 0 0 0
0 0 0 0 0 0 0 0 0 0 0 0 0 0 0 0 0 0 0 0 0 0 0 0 0 0 0 0 0 0 0 0 0 0 0 0 0 0 0 0 0 0 0 0 0 0 0 0 0 0 0 0 0 0
0 0 0 0 0 0 0 0 0 0 0 0 0 0 0 0 0 0 0 0 0 0 0 0 0 0 0 0 0 0 0 0 0 0 0 0 0 0 0 0 0 0 0 0 0 0 0 0 0 0 0 0 0 0
0 0 0 0 0 0 0 0 0 0 0 0 0 0 0 0 0 0 0 0 0 0 0 0 0 0 0 0 0 0 0 0 0 0 0 0 0 0 0 0 0 0 0 0 0 0 0 0 0 0 0 0 0 0
0 0 0 0 0 0 0 0 0 0 0 0 0 0 0 0 0 0 0 0 0 0 0 0 0 0 0 0 0 0 0 0 0 0 0 0 0 0 0 0 0 0 0 0 0 0 0 0 0 0 0 0 0 0
0 0 0 0 0 0 0 0 0 0 0 0 0 0 0 0 0 0 0 0 0 0 0 0 0 0 0 0 0 0 0 0 0 0 0 0 0 0 0 0 0 0 0 0 0 0 0 0 0 0 0 0 0 0
0 0 0 0 0 0 0 0 0 0 0 0 0 0 0 0 0 0 0 0 0 0 0 0 0 0 0 0 0 0 0 0 0 0 0 0 0 0 0 0 0 0 0 0 0 0 0 0 0 0 0 0 0 0
0 0 0 0 0 0 0 0 0 0 0 0 0 0 0 0 0 0 0 0 0 0 0 0 0 0 0 0 0 0 0 0 0 0 0 0 0 0 0 0 0 0 0 0 0 0 0 0 0 0 0 0 0 0
0 0 0 0 0 0 0 0 0 0 0 0 0 0 0 0 0 0 0 0 0 0 0 0 0 0 0 0 0 0 0 0 0 0 0 0 0 0 0 0 0 0 0 0 0 0 0 0 0 0 0 0 0 0
0 0 0 0 0 0 0 0 0 0 0 0 0 0 0 0 0 0 0 0 0 0 0 0 0 0 0 0 0 0 0 0 0 0 0 0 0 0 0 0 0 0 0 0 0 0 0 0 0 0 0 0 0 0
0 0 0 0 0 0 0 0 0 0 0 0 0 0 0 0 0 0 0 0 0 0 0 0 0 0 0 0 0 0 0 0 0 0 0 0 0 0 0 0 0 0 0 0 0 0 0 0 0 0 0 0 0 0
0 0 0 0 0 0 0 0 0 0 0 0 0 0 0 0 0 0 0 0 0 0 0 0 0 0 0 0 0 0 0 0 0 0 0 0 0 0 0 0 0 0 0 0 0 0 0 0 0 0 0 0 0 0
0 0 0 0 0 0 0 0 0 0 0 0 0 0 0 0 0 0 0 0 0 0 0 0 0 0 0 0 0 0 0 0 0 0 0 0 0 0 0 0 0 0 0 0 0 0 0 0 0 0 0 0 0 0
CIN
-0 -0 -0 -0 -0 -1 -1 -3 -3 -19 -1 -0 -0 -0 -0 -0 -0 -0 -0 -0 -0 -0 -0 -0 -0 -0 -0 -0 -0 -0 -0 -0 -0 -0 -0 -0 -0 -0 -0 -0 -0 -0 -0 -0 -0 -0 -0 -0 -0 -0 -0 -0 -0 -0
-0 -0 -0 -1 -1 -1 -0 -1 -2 -12 -0 -1 -1 -0 -0 -0 -0 -0 -0 -0 -0 -0 -0 -0 -0 -0 -0 -0 -0 -0 -0 -0 -0 -0 -0 -0 -0 -0 -0 -0 -0 -0 -0 -0 -0 -0 -0 -0 -0 -0 -0 -0 -0 -0
-0 -0 -1 -1 -0 -0 -2 -0 -2 -1 -0 -0 -0 -7 -3 -0 -0 -0 -0 -0 -0 -0 -0 -0 -0 -0 -0 -0 -0 -0 -0 -0 -0 -0 -0 -0 -0 -0 -0 -0 -0 -0 -0 -0 -0 -0 -0 -0 -0 -0 -0 -0 -0 -0
-1 -0 -0 -0 -1 -0 -1 -0 -2 -3 -0 -0 -0 -0 -27 -0 -0 -0 -0 -0 -0 -0 -0 -0 -0 -0 -0 -0 -0 -0 -0 -0 -0 -0 -0 -0 -0 -0 -0 -0 -0 -0 -0 -0 -0 -0 -0 -0 -0 -0 -0 -0 -0 -0
-1 -1 -0 -0 -0 -0 -1 -0 -14 -3 -5 -0 -0 -0 -0 -0 -0 -0 -0 -0 -0 -0 -0 -0 -0 -0 -0 -0 -0 -0 -0 -0 -0 -0 -0 -0 -0 -0 -0 -0 -0 -0 -0 -0 -0 -0 -0 -0 -0 -0 -0 -0 -0 -0
-0 -0 -0 -1 -0 -0 -0 -0 -0 -4 -0 -1 -0 -0 -0 -0 -0 -0 -0 -0 -0 -0 -0 -0 -0 -0 -0 -0 -0 -0 -0 -0 -0 -0 -0 -0 -0 -0 -0 -0 -0 -0 -0 -0 -0 -0 -0 -0 -0 -0 -0 -0 -0 -0
-0 -13 -0 -0 -0 -1 -0 -5 -0 -0 -0 -1 -0 -0 -0 -0 -0 -0 -0 -0 -0 -0 -0 -0 -0 -0 -0 -0 -0 -0 -0 -0 -0 -0 -0 -0 -0 -0 -0 -0 -0 -0 -0 -0 -0 -0 -0 -0 -0 -0 -0 -0 -0 -0
-1 -1 -0 -1 -2 -0 -0 -0 -3 -0 -0 -0 -0 -0 -0 -0 -0 -0 -0 -0 -0 -0 -0 -0 -0 -0 -0 -0 -0 -0 -0 -0 -0 -0 -0 -0 -0 -0 -0 -0 -0 -0 -0 -0 -0 -0 -0 -0 -0 -0 -0 -0 -0 -0
-0 -0 -0 -0 -0 -0 -0 -0 -0 -0 -0 -0 -0 -0 -0 -0 -0 -0 -0 -0 -0 -0 -0 -0 -0 -0 -0 -0 -0 -0 -0 -0 -0 -0 -0 -0 -0 -0 -0 -0 -0 -0 -0 -0 -0 -0 -0 -0 -0 -0 -0 -0 -0 -0
-0 -0 -0 -0 -0 -0 -0 -0 -0 -0 -0 -0 -0 -0 -0 -0 -0 -0 -0 -0 -0 -0 -0 -0 -0 -0 -0 -0 -0 -0 -0 -0 -0 -0 -0 -0 -0 -0 -0 -0 -0 -0 -0 -0 -0 -0 -0 -0 -0 -0 -0 -0 -0 -0
-0 -0 -0 -0 -0 -0 -0 -0 -0 -0 -0 -0 -0 -0 -0 -0 -0 -0 -0 -0 -0 -0 -0 -0 -0 -0 -0 -0 -0 -0 -0 -0 -0 -0 -0 -0 -0 -0 -0 -0 -0 -0 -0 -0 -0 -0 -0 -0 -0 -0 -0 -0 -0 -0
-0 -0 -0 -0 -0 -0 -0 -0 -0 -0 -0 -0 -0 -0 -0 -0 -0 -0 -0 -0 -0 -0 -0 -0 -0 -0 -0 -0 -0 -0 -0 -0 -0 -0 -0 -0 -0 -0 -0 -0 -0 -0 -0 -0 -0 -0 -0 -0 -0 -0 -0 -0 -0 -0
-0 -0 -0 -0 -0 -0 -0 -0 -0 -0 -0 -0 -0 -0 -0 -0 -0 -0 -0 -0 -0 -0 -0 -0 -0 -0 -0 -0 -0 -0 -0 -0 -0 -0 -0 -0 -0 -0 -0 -0 -0 -0 -0 -0 -0 -0 -0 -0 -0 -0 -0 -0 -0 -0
-0 -0 -0 -0 -0 -0 -0 -0 -0 -0 -0 -0 -0 -0 -0 -0 -0 -0 -0 -0 -0 -0 -0 -0 -0 -0 -0 -0 -0 -0 -0 -0 -0 -0 -0 -0 -0 -0 -0 -0 -0 -0 -0 -0 -0 -0 -0 -0 -0 -0 -0 -0 -0 -0
-0 -0 -0 -0 -0 -0 -0 -0 -0 -0 -0 -0 -0 -0 -0 -0 -0 -0 -0 -0 -0 -0 -0 -0 -0 -0 -0 -0 -0 -0 -0 -0 -0 -0 -0 -0 -0 -0 -0 -0 -0 -0 -0 -0 -0 -0 -0 -0 -0 -0 -0 -0 -0 -0
-0 -0 -0 -0 -0 -0 -0 -0 -0 -0 -0 -0 -0 -0 -0 -0 -0 -0 -0 -0 -0 -0 -0 -0 -0 -0 -0 -0 -0 -0 -0 -0 -0 -0 -0 -0 -0 -0 -0 -0 -0 -0 -0 -0 -0 -0 -0 -0 -0 -0 -0 -0 -0 -0
-0 -0 -0 -0 -0 -0 -0 -0 -0 -0 -0 -0 -0 -0 -0 -0 -0 -0 -0 -0 -0 -0 -0 -0 -0 -0 -0 -0 -0 -0 -0 -0 -0 -0 -0 -0 -0 -0 -0 -0 -0 -0 -0 -0 -0 -0 -0 -0 -0 -0 -0 -0 -0 -0
-0 -0 -0 -0 -0 -0 -0 -0 -0 -0 -0 -0 -0 -0 -0 -0 -0 -0 -0 -0 -0 -0 -0 -0 -0 -0 -0 -0 -0 -0 -0 -0 -0 -0 -0 -0 -0 -0 -0 -0 -0 -0 -0 -0 -0 -0 -0 -0 -0 -0 -0 -0 -0 -0
-0 -0 -0 -0 -0 -0 -0 -0 -0 -0 -0 -0 -0 -0 -0 -0 -0 -0 -0 -0 -0 -0 -0 -0 -0 -0 -0 -0 -0 -0 -0 -0 -0 -0 -0 -0 -0 -0 -0 -0 -0 -0 -0 -0 -0 -0 -0 -0 -0 -0 -0 -0 -0 -0
-0 -0 -0 -0 -0 -0 -0 -0 -0 -0 -0 -0 -0 -0 -0 -0 -0 -0 -0 -0 -0 -0 -0 -0 -0 -0 -0 -0 -0 -0 -0 -0 -0 -0 -0 -0 -0 -0 -0 -0 -0 -0 -0 -0 -0 -0 -0 -0 -0 -0 -0 -0 -0 -0
-0 -0 -0 -0 -0 -0 -0 -0 -0 -0 -0 -0 -0 -0 -0 -0 -0 -0 -0 -0 -0 -0 -0 -0 -0 -0 -0 -0 -0 -0 -0 -0 -0 -0 -0 -0 -0 -0 -0 -0 -0 -0 -0 -0 -0 -0 -0 -0 -0 -0 -0 -0 -0 -0
-0 -0 -0 -0 -0 -0 -0 -0 -0 -0 -0 -0 -0 -0 -0 -0 -0 -0 -0 -0 -0 -0 -0 -0 -0 -0 -0 -0 -0 -0 -0 -0 -0 -0 -0 -0 -0 -0 -0 -0 -0 -0 -0 -0 -0 -0 -0 -0 -0 -0 -0 -0 -0 -0
-0 -0 -0 -0 -0 -0 -0 -0 -0 -0 -0 -0 -0 -0 -0 -0 -0 -0 -0 -0 -0 -0 -0 -0 -0 -0 -0 -0 -0 -0 -0 -0 -0 -0 -0 -0 -0 -0 -0 -0 -0 -0 -0 -0 -0 -0 -0 -0 -0 -0 -0 -0 -0 -0
-0 -0 -0 -0 -0 -0 -0 -0 -0 -0 -0 -0 -0 -0 -0 -0 -0 -0 -0 -0 -0 -0 -0 -0 -0 -0 -0 -0 -0 -0 -0 -0 -0 -0 -0 -0 -0 -0 -0 -0 -0 -0 -0 -0 -0 -0 -0 -0 -0 -0 -0 -0 -0 -0
-0 -0 -0 -0 -0 -0 -0 -0 -0 -0 -0 -0 -0 -0 -0 -0 -0 -0 -0 -0 -0 -0 -0 -0 -0 -0 -0 -0 -0 -0 -0 -0 -0 -0 -0 -0 -0 -0 -0 -0 -0 -0 -0 -0 -0 -0 -0 -0 -0 -0 -0 -0 -0 -0
-0 -0 -0 -0 -0 -0 -0 -0 -0 -0 -0 -0 -0 -0 -0 -0 -0 -0 -0 -0 -0 -0 -0 -0 -0 -0 -0 -0 -0 -0 -0 -0 -0 -0 -0 -0 -0 -0 -0 -0 -0 -0 -0 -0 -0 -0 -0 -0 -0 -0 -0 -0 -0 -0
-0 -0 -0 -0 -0 -0 -0 -0 -0 -0 -0 -0 -0 -0 -0 -0 -0 -0 -0 -0 -0 -0 -0 -0 -0 -0 -0 -0 -0 -0 -0 -0 -0 -0 -0 -0 -0 -0 -0 -0 -0 -0 -0 -0 -0 -0 -0 -0 -0 -0 -0 -0 -0 -0
-0 -0 -0 -0 -0 -0 -0 -0 -0 -0 -0 -0 -0 -0 -0 -0 -0 -0 -0 -0 -0 -0 -0 -0 -0 -0 -0 -0 -0 -0 -0 -0 -0 -0 -0 -0 -0 -0 -0 -0 -0 -0 -0 -0 -0 -0 -0 -0 -0 -0 -0 -0 -0 -0
-0 -0 -0 -0 -0 -0 -0 -0 -0 -0 -0 -0 -0 -0 -0 -0 -0 -0 -0 -0 -0 -0 -0 -0 -0 -0 -0 -0 -0 -0 -0 -0 -0 -0 -0 -0 -0 -0 -0 -0 -0 -0 -0 -0 -0 -0 -0 -0 -0 -0 -0 -0 -0 -0
-0 -0 -0 -0 -0 -0 -0 -0 -0 -0 -0 -0 -0 -0 -0 -0 -0 -0 -0 -0 -0 -0 -0 -0 -0 -0 -0 -0 -0 -0 -0 -0 -0 -0 -0 -0 -0 -0 -0 -0 -0 -0 -0 -0 -0 -0 -0 -0 -0 -0 -0 -0 -0 -0
-0 -0 -0 -0 -0 -0 -0 -0 -0 -0 -0 -0 -0 -0 -0 -0 -0 -0 -0 -0 -0 -0 -0 -0 -0 -0 -0 -0 -0 -0 -0 -0 -0 -0 -0 -0 -0 -0 -0 -0 -0 -0 -0 -0 -0 -0 -0 -0 -0 -0 -0 -0 -0 -0
-0 -0 -0 -0 -0 -0 -0 -0 -0 -0 -0 -0 -0 -0 -0 -0 -0 -0 -0 -0 -0 -0 -0 -0 -0 -0 -0 -0 -0 -0 -0 -0 -0 -0 -0 -0 -0 -0 -0 -0 -0 -0 -0 -0 -0 -0 -0 -0 -0 -0 -0 -0 -0 -0
-0 -0 -0 -0 -0 -0 -0 -0 -0 -0 -0 -0 -0 -0 -0 -0 -0 -0 -0 -0 -0 -0 -0 -0 -0 -0 -0 -0 -0 -0 -0 -0 -0 -0 -0 -0 -0 -0 -0 -0 -0 -0 -0 -0 -0 -0 -0 -0 -0 -0 -0 -0 -0 -0
Wind_Speed
19 18 21 26 18 8 5 12 11 6 7 12 10 8 5 6 8 9 9 12 13 21 18 18 22 28 29 32 40 33 32 35 33 35 36 33 34 34 32 29 32 32 31 36 37 44 49 20 15 23 26 22 22 20
16 18 22 16 9 8 8 10 12 8 6 7 8 9 9 9 9 10 8 9 8 13 15 13 14 17 21 24 28 34 36 35 33 36 36 31 29 29 31 35 30 35 34 33 32 37 27 22 26 23 24 23 22 22
14 10 10 9 8 6 6 7 11 7 3 6 8 6 11 11 11 10 8 10 8 11 13 15 18 18 17 21 24 31 34 32 33 29 32 32 35 29 32 36 29 32 30 34 30 32 28 22 20 19 19 19 17 16
7 5 6 6 5 3 3 3 7 9 7 5 7 7 7 9 11 11 11 13 11 11 19 19 16 16 19 18 20 22 25 26 27 28 32 35 36 31 32 27 30 28 26 31 32 28 23 23 22 19 17 15 14 15
5 3 3 3 2 2 2 1 4 6 7 6 6 8 5 3 3 4 7 10 12 14 19 18 15 16 16 15 13 15 19 25 30 31 34 37 32 29 30 29 32 28 29 32 36 27 27 24 19 17 16 16 15 15
5 6 4 1 1 4 1 2 5 6 6 3 3 4 5 10 13 14 16 14 15 13 13 21 16 17 15 15 13 14 18 21 24 25 28 30 27 29 30 35 29 29 27 26 28 21 22 18 18 16 14 13 12 12
5 3 2 0 2 3 2 2 4 2 2 1 1 3 5 7 10 15 16 19 19 14 15 18 20 17 16 18 17 16 16 21 24 26 27 24 27 26 28 33 25 24 22 16 14 14 18 17 19 13 12 11 11 12
10 10 11 10 9 8 7 6 4 2 5 4 3 5 5 6 6 11 14 15 15 13 15 18 21 19 16 19 21 19 20 21 21 23 24 27 26 26 30 27 24 23 19 17 20 22 18 12 12 12 12 12 13 14
20 20 20 18 15 13 10 10 6 2 2 2 2 6 8 10 11 14 19 17 13 13 17 18 22 25 18 18 17 20 20 24 21 24 25 24 25 30 27 24 19 21 23 24 22 16 15 16 15 15 17 19 19 19
16 17 17 16 11 11 9 5 1 1 2 4 8 11 12 13 17 15 14 15 16 18 16 19 18 20 19 19 20 21 21 23 27 25 22 27 28 20 19 19 19 21 21 20 18 17 16 17 17 18 17 18 18 19
14 16 17 16 12 11 9 7 8 10 10 12 13 13 13 17 15 16 17 16 18 19 20 20 19 19 17 20 21 20 22 24 29 28 27 29 30 24 20 19 18 19 18 16 14 14 15 15 16 17 17 18 19 20
12 16 16 16 16 14 14 14 13 11 13 12 10 12 16 18 18 19 20 20 20 22 21 21 20 19 19 18 20 20 23 23 31 23 28 33 27 21 20 19 18 17 17 17 16 16 16 17 17 17 18 19 20 21
12 13 15 19 20 20 19 17 16 14 13 15 16 18 20 21 20 21 23 22 22 21 21 21 20 20 19 18 20 21 24 27 19 27 31 29 22 20 21 21 19 18 17 16 17 18 18 19 20 21 21 21 22 22
12 14 17 19 21 22 22 21 20 17 16 17 18 19 18 19 18 19 19 19 19 21 23 21 21 21 21 21 20 23 21 20 28 33 32 22 20 20 20 20 19 20 19 19 19 21 21 22 23 22 22 22 22 21
14 16 18 21 23 24 24 24 21 17 15 15 16 17 17 16 15 16 17 17 18 21 20 19 21 20 21 22 22 21 24 28 27 29 24 21 19 17 17 17 17 18 19 20 21 22 22 23 23 22 22 22 22 22
15 17 22 23 24 26 24 23 22 16 15 15 15 14 14 15 16 16 16 17 18 19 18 19 21 21 22 22 25 27 28 30 27 24 22 19 19 18 18 18 18 19 20 21 22 23 23 24 24 24 23 23 24 24
17 16 21 22 24 24 25 22 21 16 15 15 15 14 14 15 15 16 17 18 21 18 17 18 21 22 20 23 25 23 26 24 22 21 19 19 19 19 19 20 20 22 23 24 24 23 24 25 25 25 25 26 27 26
17 18 22 25 26 25 24 23 18 16 15 15 15 16 16 16 16 16 18 19 17 16 17 17 19 21 24 25 25 22 20 19 18 17 18 18 19 19 20 22 23 23 24 25 24 25 25 26 26 26 27 28 30 30
20 21 23 25 26 24 21 18 18 15 16 16 16 16 16 16 16 17 18 19 17 17 17 17 18 19 20 20 20 19 20 21 22 23 23 23 23 23 24 25 25 26 27 27 28 29 29 29 29 29 30 31 33 34
10 8 12 7 12 11 15 16 15 15 15 15 15 15 15 15 17 17 17 18 17 16 17 18 19 19 20 20 19 20 21 20 21 23 23 22 22 22 25 27 27 27 27 27 27 27 28 28 27 28 29 30 32 34
12 7 4 14 18 21 24 7 15 16 16 15 16 14 14 14 14 15 17 20 16 16 17 17 18 20 20 21 21 21 21 21 23 23 24 25 23 25 27 26 25 27 28 28 29 28 27 28 28 29 30 31 31 32
14 12 16 15 18 18 21 10 15 10 14 16 16 14 13 14 16 17 20 17 16 17 17 18 18 19 20 21 22 21 22 23 23 24 25 26 28 28 28 28 29 29 29 29 28 29 29 28 29 29 30 32 32 33
17 18 20 17 21 19 18 13 18 13 20 13 17 17 16 16 17 19 16 16 16 17 18 18 19 19 21 22 22 22 21 22 25 26 27 28 29 29 30 30 28 30 30 29 27 29 29 29 30 31 31 31 31 32
15 18 17 18 17 17 13 15 15 14 14 15 16 18 20 19 18 17 17 18 19 19 19 19 20 22 21 21 22 22 21 20 24 26 26 28 30 30 28 29 29 28 27 29 30 31 31 31 29 29 31 32 32 33
19 18 18 18 16 16 16 14 13 14 13 11 11 11 10 9 11 15 16 18 18 19 19 19 20 20 23 24 24 23 19 19 24 28 27 25 28 31 31 30 30 30 27 28 30 31 31 30 30 31 33 34 36 37
22 18 19 18 17 17 16 16 15 15 14 14 14 11 12 11 12 12 11 12 12 12 13 12 14 17 18 13 20 24 24 19 20 27 29 24 24 27 33 36 37 34 25 25 28 31 32 31 32 33 35 36 36 38
22 19 17 17 17 16 16 16 15 15 15 15 13 13 14 13 13 12 13 12 14 15 15 15 15 15 18 21 19 19 19 17 17 21 24 25 24 22 23 28 32 28 25 25 26 27 30 31 32 32 35 36 36 36
20 19 19 15 17 16 17 17 16 16 15 14 14 13 12 12 12 14 13 14 13 15 15 15 14 14 15 17 21 23 24 22 23 25 28 27 22 21 20 21 22 24 26 26 27 28 29 30 32 33 34 36 38 35
20 18 18 19 18 16 17 17 17 15 15 16 15 13 12 11 12 13 14 14 16 16 14 14 17 17 16 17 16 17 17 19 24 29 32 33 34 30 22 21 23 25 26 27 27 27 28 29 30 32 33 35 37 37
21 19 20 20 20 19 16 15 14 14 13 13 12 11 10 9 7 8 7 7 8 9 10 11 13 15 15 20 22 22 17 13 13 17 24 28 29 27 25 25 26 27 27 27 29 30 31 31 32 32 32 33 35 35
20 20 20 20 19 17 15 14 13 13 14 14 13 11 11 10 6 7 7 6 5 6 7 7 5 7 7 8 11 15 18 19 15 15 16 21 25 28 29 29 30 30 30 31 32 33 34 34 34 36 37 38 38 38
21 21 22 22 20 18 17 18 15 15 13 12 13 13 12 12 12 11 10 11 10 9 9 9 8 6 6 5 6 7 8 10 12 13 14 15 17 19 22 25 28 30 31 33 34 35 35 37 38 38 38 39 40 40
20 20 20 19 20 20 19 19 18 16 15 15 14 14 14 14 14 13 11 7 6 8 9 10 8 8 7 8 9 10 11 12 14 16 17 18 20 22 24 25 26 26 26 27 29 31 32 33 35 37 38 39 41 42
Wind_Direction
232 235 232 225 211 191 199 213 218 223 239 230 244 246 274 292 301 288 286 289 269 230 237 243 238 230 228 225 220 219 214 226 224 222 227 233 239 238 243 242 239 238 237 244 248 252 258 267 256 264 282 290 291 303
205 218 218 198 179 202 216 224 220 217 239 239 247 249 257 264 275 279 281 286 311 249 236 255 248 247 241 238 231 222 229 220 228 227 233 235 242 240 242 247 249 244 243 246 246 256 276 265 274 280 283 286 283 288
193 199 152 152 175 196 220 224 219 203 213 240 241 248 252 259 263 272 274 283 291 249 250 251 245 254 259 250 246 229 230 228 233 239 235 240 242 247 246 250 251 252 250 253 256 259 262 268 278 281 291 291 291 287
197 172 154 158 161 182 204 230 216 212 219 248 249 260 270 266 265 266 266 275 281 271 242 248 270 258 266 262 250 245 238 238 239 241 241 242 243 251 252 258 253 254 244 251 256 264 265 268 270 279 285 284 288 292
212 199 184 169 130 112 101 37 236 221 230 242 259 258 280 298 318 291 288 289 285 272 249 247 269 275 270 258 261 248 240 239 239 241 243 245 246 252 256 258 254 252 252 247 256 258 266 266 266 271 274 277 282 286
244 231 227 197 106 56 76 315 273 254 229 239 261 265 254 263 264 258 259 277 290 278 270 247 269 265 269 260 263 257 251 246 245 243 248 248 250 250 249 251 259 255 260 261 260 261 267 264 265 269 270 275 282 290
235 242 230 349 86 42 359 327 10 82 192 213 309 307 294 286 280 261 259 263 270 275 268 256 253 264 271 258 261 261 261 253 250 251 253 253 246 250 255 252 256 257 257 262 255 252 263 262 264 267 269 274 286 295
61 68 75 66 60 56 43 22 236 166 96 93 70 40 12 1 314 279 279 288 273 269 270 257 258 256 275 258 250 264 256 258 260 256 258 254 254 257 256 259 257 260 259 258 262 270 262 257 262 267 271 274 282 289
59 62 63 61 57 49 46 55 62 137 109 50 347 298 298 309 294 279 275 269 286 275 261 263 251 248 272 263 267 258 263 254 263 255 257 257 256 255 255 258 257 266 263 265 267 261 256 258 261 268 273 279 281 285
49 49 49 48 48 38 34 37 175 232 296 310 301 282 278 286 275 279 285 274 272 274 274 262 265 260 265 262 261 260 263 256 253 258 263 257 256 262 263 264 269 272 269 268 257 255 259 262 265 271 277 284 286 287
41 41 39 35 30 21 6 334 281 275 293 297 294 286 288 287 298 294 280 277 273 264 268 265 264 260 273 262 261 268 261 261 254 256 256 255 254 256 266 265 270 274 277 276 274 273 275 274 273 275 282 289 292 293
33 33 29 24 16 8 359 352 343 318 298 304 310 308 299 296 291 282 275 275 273 263 269 263 263 269 270 272 267 267 262 263 256 262 257 256 260 262 265 268 271 274 278 278 281 280 280 280 283 283 287 292 294 297
24 23 20 15 8 1 354 344 340 339 315 304 297 290 289 287 283 277 270 273 269 276 275 269 263 268 269 272 267 267 263 261 271 261 261 265 266 265 266 267 273 280 282 282 283 283 285 287 289 290 291 295 297 298
20 15 8 2 359 355 350 342 331 317 310 297 295 288 289 286 287 284 280 279 282 277 273 267 262 262 264 262 267 263 268 270 262 260 263 271 267 269 270 273 272 276 282 283 284 285 287 288 290 295 299 300 299 298
16 8 0 353 350 347 344 344 341 337 318 303 299 288 290 291 292 295 292 286 289 285 273 266 266 267 262 263 267 267 265 264 266 267 272 269 272 276 277 279 280 283 286 287 288 289 292 293 292 294 300 301 301 300
356 355 346 338 340 341 336 339 340 333 325 312 310 297 293 289 290 297 298 293 294 288 279 269 266 266 266 266 263 262 262 264 270 274 277 276 275 277 279 285 288 289 291 292 294 295 295 295 295 295 297 299 299 299
4 343 325 331 332 337 339 340 333 327 320 310 304 307 301 296 292 292 297 296 292 284 279 275 266 266 273 269 265 269 268 275 278 279 282 281 280 284 289 290 291 292 292 293 294 295 295 296 296 294 292 296 298 299
353 321 327 331 339 343 336 333 335 327 322 315 303 300 298 297 294 297 296 296 297 291 283 282 280 274 270 270 271 273 277 280 284 286 288 288 289 292 294 293 294 294 295 296 297 297 297 297 295 295 296 297 297 298
354 331 324 326 341 344 335 329 328 328 325 319 311 302 297 293 296 295 299 299 299 296 289 284 285 278 280 282 282 284 285 284 284 286 289 290 290 291 293 295 296 296 296 296 296 296 296 296 295 296 297 298 297 299
133 288 296 302 94 355 338 331 328 341 330 323 318 303 299 298 296 300 304 307 305 302 295 289 284 286 286 289 290 289 291 296 294 293 293 297 297 296 296 296 297 298 300 300 301 300 300 300 299 300 300 300 301 301
115 125 127 114 103 99 91 284 346 347 351 346 329 323 312 308 308 306 305 305 312 307 302 301 298 294 293 291 294 294 294 296 294 295 295 295 301 300 298 300 300 300 300 300 300 300 300 300 302 303 303 303 304 304
103 103 103 106 105 109 99 129 129 167 324 340 337 331 330 324 316 314 303 315 315 313 313 310 307 305 302 298 297 296 297 299 299 299 299 300 298 300 299 300 300 299 299 299 300 299 300 302 304 304 304 305 306 306
97 95 97 95 98 98 102 112 103 121 79 316 351 351 341 331 323 312 328 329 326 327 327 322 317 315 307 306 306 304 303 301 299 299 300 300 300 300 300 300 300 299 299 301 303 303 302 304 305 306 307 308 308 308
94 89 88 88 86 91 101 96 102 107 108 104 95 68 10 338 293 339 335 332 334 332 331 327 325 317 319 317 314 312 313 312 307 305 306 304 302 303 305 303 304 303 302 303 303 303 303 303 305 306 307 307 307 307
80 77 81 74 80 79 80 83 88 88 93 105 110 112 123 152 106 47 21 358 353 345 345 343 335 329 321 317 315 320 327 325 313 306 310 312 308 305 304 306 305 304 306 304 302 303 303 303 304 304 304 304 304 304
73 75 71 68 70 71 72 73 72 73 80 83 85 88 85 92 89 86 79 50 37 29 22 17 4 349 342 347 331 324 324 328 325 314 312 315 314 310 305 303 302 306 310 307 306 304 304 303 302 302 302 303 303 303
69 67 68 71 70 71 74 71 72 74 72 70 65 62 61 64 66 67 45 40 29 16 10 5 2 356 347 338 338 335 333 333 329 325 322 319 317 314 312 309 308 311 314 311 310 308 307 306 305 305 304 305 305 305
70 67 57 62 64 70 66 65 66 66 67 66 56 61 62 60 49 35 34 28 28 16 11 6 3 357 351 345 338 334 331 331 328 324 321 319 319 318 315 313 312 311 311 311 309 309 307 307 306 306 306 305 306 307
63 61 59 60 62 68 65 62 59 59 55 48 46 49 54 56 43 34 29 27 20 15 13 8 3 359 356 352 348 344 341 337 332 326 321 319 318 321 325 322 320 317 315 313 311 309 308 307 306 306 306 306 306 307
57 57 56 57 57 59 64 64 57 54 52 49 47 42 37 36 54 54 52 48 37 28 22 14 7 1 355 349 346 344 347 344 337 332 329 327 327 329 327 324 321 318 316 314 312 311 310 308 308 307 306 306 306 306
54 54 54 55 53 58 60 57 53 53 58 61 63 62 57 56 77 92 114 109 91 60 35 13 4 9 358 355 355 352 348 349 342 332 326 325 325 324 322 320 319 317 316 313 311 310 309 308 307 306 305 304 304 304
46 48 44 43 46 52 53 54 59 71 83 83 80 81 77 73 73 81 98 96 78 55 42 34 25 14 23 1 343 333 321 324 326 322 317 315 314 316 319 320 319 317 314 312 310 309 307 306 305 304 304 304 304 304
39 42 44 44 45 47 49 47 61 63 73 75 78 78 73 68 62 67 74 103 82 48 33 29 25 12 358 344 332 326 326 324 321 322 320 318 317 318 320 320 318 316 314 313 312 311 309 308 306 305 305 304 304 304